This is the latest recevied weather packets stored in our database for station/object N2XGL-1. If no packets are shown the sender has not sent any weather packets the latest 10 day(s).
| Time | Temp. | Humidity | Pressure | Rain* | Wind** | Luminosity | Snow |
|---|---|---|---|---|---|---|---|
| 1777848828 | 21.11° C | 25% | 1001.7 hPa | 0 mm | - | - | - |
| 1777848341 | 21.11° C | 24% | 1001.7 hPa | 0 mm | - | - | - |
| 1777847778 | 21.67° C | 24% | 1002.1 hPa | 0 mm | - | - | - |
| 1777847179 | 21.67° C | 24% | 1002.1 hPa | 0 mm | - | - | - |
| 1777846134 | 22.22° C | 23% | 1002 hPa | 0 mm | - | - | - |
| 1777845581 | 22.78° C | 21% | 1002.2 hPa | 0 mm | - | - | - |
| 1777844473 | 23.33° C | 21% | 1002.3 hPa | 0 mm | - | - | - |
| 1777843969 | 23.33° C | 18% | 1002.4 hPa | 0 mm | - | - | - |
| 1777843394 | 23.89° C | 19% | 1002.5 hPa | 0 mm | - | - | - |
| 1777842829 | 23.89° C | 18% | 1002.6 hPa | 0 mm | - | - | - |
| 1777842248 | 23.33° C | 16% | 1002.7 hPa | 0 mm | - | - | - |
| 1777841654 | 23.33° C | 18% | 1002.8 hPa | 0 mm | - | - | - |
| 1777841054 | 23.33° C | 14% | 1003 hPa | 0 mm | - | - | - |
| 1777840472 | 23.33° C | 15% | 1003.1 hPa | 0 mm | - | - | - |
| 1777840214 | 23.33° C | 16% | 1003.1 hPa | 0 mm | - | - | - |
| 1777839938 | 23.33° C | 16% | 1003.1 hPa | 0 mm | - | - | - |
| 1777839396 | 23.89° C | 17% | 1003.3 hPa | 0 mm | - | - | - |
| 1777839341 | 23.89° C | 17% | 1003.3 hPa | 0 mm | - | - | - |
| 1777838854 | 23.89° C | 15% | 1003.4 hPa | 0 mm | - | - | - |
| 1777838416 | 25° C | 19% | 1003.5 hPa | 0 mm | - | - | - |
| 1777838318 | 25° C | 19% | 1003.5 hPa | 0 mm | - | - | - |
| 1777837748 | 23.89° C | 18% | 1003.7 hPa | 0 mm | - | - | - |
| 1777837154 | 24.44° C | 18% | 1003.8 hPa | 0 mm | - | - | - |
| 1777836553 | 25.56° C | 17% | 1004.1 hPa | 0 mm | - | - | - |
| 1777835969 | 25° C | 17% | 1004.2 hPa | 0 mm | - | - | - |
* Rain latest hour (hover to see other rain measurements)
** Current wind speed in m/s (hover to see current wind gust speed)